Location: Endfield
(51.6667°N, 0.0667°W)
Time: 03:37:43
(UTC+00:00)

Cosmos 2369 Rocket - Pass Details

Date: 19 May 2024
Orbit: 829 x 851 km, 71.0° (Epoch: 17 June)

Event Time Altitude Azimuth Distance (km) Brightness Sun altitude
Rises 23:04:35 0° 317° (NW) 3,383 6.4 -17.4°
Reaches altitude 10° 23:08:07 10° 295° (WNW) 2,444 5.1 -17.5°
Maximum altitude 23:11:01 15° 263° (W) 2,136 4.3 -17.6°
Drops below altitude 10° 23:13:55 10° 231° (SW) 2,438 4.3 -17.7°
Enters shadow 23:14:25 - 227° (SW) 2,542 4.4 -17.7°
